Location: Allisons_Woods
(35.8920°N, 81.8170°W)
Time: 08:38:38
(UTC-05:00)

Daily predictions for brighter satellites

Satellite Brightness Start Highest point End
(mag) Time Altitude Azimuth Time Altitude Azimuth Time Altitude Azimuth
BREEZE-M DEB (TANK) 4.1 17:52:05 10° NW 17:55:44 86° NE 18:09:11 10° SE
Cosmos 1943 3.5 17:58:34 10° SSW 18:04:11 74° WNW 18:09:49 10° NNE
SL-8 Rocket 4.3 18:01:19 10° N 18:07:09 43° E 18:13:01 10° SSE
Cosmos 1354 Rocket 4.1 18:02:10 10° NNW 18:07:29 88° WSW 18:12:49 10° SSE
Cosmos 1400 Rocket 2.9 18:03:50 10° S 18:07:48 62° E 18:11:51 10° NNE
Ariane Rocket 3.0 18:03:15 10° SSE 18:08:18 88° E 18:13:24 10° NNW
Cosmos 2221 2.7 18:04:05 10° N 18:08:23 54° E 18:12:40 10° SSE
Cosmos 2218 Rocket 4.5 18:04:25 10° N 18:10:04 37° ENE 18:15:40 10° SE
Meteor 2-10 4.0 18:10:39 10° N 18:15:37 58° E 18:20:40 10° SSE
SPOT 3 Rocket 4.2 18:13:34 10° SE 18:18:02 31° ENE 18:22:32 10° N
Cosmos 1408 Rocket 4.4 18:14:27 10° SSE 18:18:05 27° E 18:21:44 10° NNE
ALOS 2.6 18:17:44 10° SE 18:22:06 41° ENE 18:26:29 10° N
EO 1 Del DPAF 3.8 18:22:31 10° NNE 18:26:07 38° E 18:29:41 10° SSE
COSMO-SKYMED 1 2.5 18:22:27 10° NNE 18:26:48 72° ESE 18:31:07 10° S
Cosmos 2151 4.4 18:30:43 10° SE 18:33:31 17° E 18:34:53 15° ENE
ATLAS 5 CENTAUR R/B 4.5 18:28:19 10° SSW 18:34:28 76° ESE 19:03:30 10° NE
Cosmos 1703 4.4 18:32:04 10° SE 18:35:13 23° E 18:37:44 13° NE
Landsat 4 3.6 18:33:20 10° NNE 18:37:05 80° ESE 18:40:48 10° S
Meteor 2-8 Rocket 4.4 18:31:44 10° S 18:37:47 68° E 18:43:53 10° NNE
Cosmos 1076 Rocket 3.8 18:34:02 10° SSW 18:38:23 73° W 18:42:45 10° N
Cosmos 2263 4.3 18:33:11 10° NNW 18:38:58 85° WSW 18:44:41 10° SSE
Cosmos 1626 2.4 18:38:43 10° SSE 18:42:14 44° E 18:45:48 10° NNE
Cosmos 2369 Rocket 3.2 18:41:20 10° NNW 18:46:48 50° WSW 18:52:15 10° S
CZ-4 R/B 3.1 18:43:47 10° SSW 18:47:42 38° W 18:51:40 10° NNW
Cosmos 2366 rocket 3.9 18:42:27 10° N 18:48:41 71° E 18:54:49 10° SSE
SL-14 R/B 4.2 18:46:17 10° SSW 18:50:12 52° W 18:54:05 10° N
Cosmos 1300 3.0 18:48:38 10° NNW 18:52:26 68° W 18:56:13 10° S
Cosmos 1328 Rocket 4.1 18:49:52 10° NNE 18:53:51 34° ENE 18:57:49 10° SE
BREEZE-M DEB (TANK) 3.8 18:51:40 10° W 18:56:10 27° NW 18:57:55 15° NNE
Cosmos 1656 Rocket 3.8 18:51:32 10° N 18:56:51 50° ENE 19:02:12 10° SE
Cosmos 2098 Rocket 4.0 18:52:52 10° N 18:58:00 46° E 19:04:15 10° SSE
ERS-2 2.1 18:55:51 10° SSE 18:59:27 60° ENE 19:03:05 10° N
Cosmos 968 Rocket 3.9 18:54:40 10° NNW 18:59:46 65° WSW 19:04:48 10° S
NOAA 12 4.0 18:55:18 10° SSE 19:00:32 90° ENE 19:05:48 10° NNW
ATLAS 2AS CENTAUR R/B 3.7 18:54:14 10° NW 19:01:45 54° WSW 19:08:37 10° S
Cosmos 1943 Rocket 2.8 18:56:25 10° NNW 19:01:53 57° WSW 19:07:17 10° S
Cosmos 371 Rocket 4.0 18:58:05 10° SSE 19:02:16 31° E 19:03:05 29° E
Nadezhda 3 Rocket 4.2 18:56:30 10° SSE 19:02:30 49° E 19:08:34 10° NNE
Cosmos 1766 Rocket 3.8 18:58:26 10° SSW 19:02:44 71° W 19:07:04 10° N
Cosmos 44 3.4 19:05:16 10° SW 19:09:30 60° WNW 19:12:38 18° NNE
Cosmos 1315 Rocket 4.2 19:10:08 10° SSW 19:13:50 39° WNW 19:17:32 10° N
Meteor 1-11 4.2 19:12:35 10° S 19:18:10 83° W 19:23:49 10° N
Meteor 1-27 4.1 19:12:43 10° N 19:18:25 69° E 19:24:11 10° SSE
Cosmos 1570 Rocket 4.4 19:14:16 10° SSE 19:19:10 39° ESE 19:19:32 38° E
FENGYUN 3A 4.4 19:14:20 10° S 19:19:32 54° W 19:24:47 10° NNW
Cosmos 1346 Rocket 2.5 19:16:23 10° N 19:20:18 79° E 19:24:10 10° S
ASTRO E2 3.6 19:17:30 10° WSW 19:21:12 37° S 19:21:49 34° SSE
NOSS 3-4 (A) 3.8 19:17:27 10° NNW 19:24:33 66° ENE 19:31:46 12° SE
NOSS 3-4 (C) 3.8 19:17:33 10° NNW 19:24:39 66° ENE 19:31:38 12° SE
SL-24 R/B - RUBIN 2 3.3 19:20:43 10° NNW 19:25:11 73° ENE 19:26:15 49° SE
OAO 3 Rocket 3.1 19:21:13 10° W 19:25:55 78° S 19:27:01 52° ESE
SEDSat Delta rocket 4.3 19:23:07 10° WSW 19:29:27 49° S 19:31:27 36° ESE
COSMOS 2406 3.1 19:25:05 10° SSW 19:30:48 83° ESE 19:33:47 30° NNE
H-2A R/B 3.0 19:27:38 10° S 19:31:23 67° W 19:35:12 10° NNW
FengYun 1-2 T 4.2 19:28:22 10° SSE 19:34:00 87° WSW 19:39:40 10° NNW
Cosmos 44 Rocket 4.2 19:30:38 10° SW 19:35:04 44° WNW 19:37:31 24° N
Thor Agena Rocket 3.4 19:39:09 30° NNE 19:41:51 88° E 19:47:04 10° SSW
Lacrosse 5 3.8 19:42:44 10° S 19:44:15 17° SSE 19:44:15 17° SSE
Cosmos 2239 Rocket 4.3 19:45:25 10° N 19:51:33 73° E 19:57:40 10° SSE
Cosmos 909 Rocket 4.1 19:48:06 10° NNW 19:54:14 57° NE 19:54:14 57° NE
Cosmos 332 Rocket 4.2 19:51:15 10° SSW 19:56:04 61° WNW 19:56:54 52° NNW
Cosmos 2058 4.5 19:58:25 10° SW 20:02:12 34° WNW 20:03:30 27° NW
Cosmos 2228 Rocket 4.5 20:06:27 10° NNW 20:10:43 39° W 20:14:57 10° SSW
GEOS 3 Rocket 4.3 20:23:24 52° W 20:23:24 52° W 20:27:50 10° NW
